Kuchera_Ratio
0.0 0.0 0.0 0.0 0.0 0.0 0.0 0.0 0.0 0.0 0.0 0.0 0.0 0.0 0.0 0.0 0.0 0.0 0.0 0.0 0.0 0.0 0.0 0.0 0.0 0.0 0.0 0.0 0.0 0.0 0.0 0.0 0.0 0.0 0.0 0.0 0.0 0.0
0.0 0.0 0.0 0.0 0.0 0.0 0.0 0.0 0.0 0.0 0.0 0.0 0.0 0.0 0.0 0.0 0.0 0.0 0.0 0.0 0.0 0.0 0.0 0.0 0.0 0.0 0.0 0.0 0.0 0.0 0.0 0.0 0.0 0.0 0.0 0.0 0.0 0.0
0.0 0.0 0.0 0.0 0.0 0.0 0.0 0.0 0.0 0.0 0.0 0.0 0.0 0.0 0.0 0.0 0.0 0.0 0.0 0.0 0.0 0.0 0.0 0.0 0.0 0.0 0.0 0.0 0.0 0.0 0.0 0.0 0.0 0.0 0.0 0.0 0.0 0.0
0.0 0.0 0.0 0.0 0.0 0.0 0.0 0.0 0.0 0.0 0.0 0.0 0.0 0.0 0.0 0.0 0.0 0.0 0.0 0.0 0.0 0.0 0.0 0.0 0.0 0.0 0.0 0.0 0.0 0.0 0.0 0.0 0.0 0.0 0.0 0.0 0.0 0.0
0.0 0.0 0.0 0.0 0.0 0.0 0.0 0.0 0.0 0.0 0.0 0.0 0.0 0.0 0.0 0.0 0.0 0.0 0.0 0.0 0.0 0.0 0.0 0.0 0.0 0.0 0.0 0.0 0.0 0.0 0.0 0.0 0.0 0.0 0.0 0.0 0.0 0.0
0.0 0.0 0.0 0.0 0.0 0.0 0.0 0.0 0.0 0.0 0.0 0.0 0.0 0.0 0.0 0.0 0.0 0.0 0.0 0.0 0.0 0.0 0.0 0.0 0.0 0.0 0.0 0.0 0.0 0.0 0.0 0.0 0.0 0.0 0.0 0.0 0.0 0.0
0.0 0.0 0.0 0.0 0.0 0.0 0.0 0.0 0.0 0.0 0.0 0.0 0.0 0.0 0.0 0.0 0.0 0.0 0.0 0.0 0.0 0.0 0.0 0.0 0.0 0.0 0.0 0.0 0.0 0.0 0.0 0.0 0.0 0.0 0.0 0.0 0.0 0.0
0.0 0.0 0.0 0.0 0.0 0.0 0.0 0.0 0.0 0.0 0.0 0.0 0.0 0.0 0.0 0.0 0.0 0.0 0.0 0.8 0.9 0.0 0.0 0.0 0.0 0.0 0.0 0.0 0.0 0.0 0.0 0.0 0.0 0.0 0.0 0.0 0.0 0.0
0.0 0.0 0.0 0.0 0.0 0.0 0.0 0.0 0.0 0.0 0.0 0.0 0.0 0.0 0.0 0.0 0.0 0.1 1.5 2.1 1.4 0.0 0.0 0.0 0.0 0.0 0.0 0.0 0.0 0.0 0.0 0.0 0.0 0.0 0.0 0.0 0.0 0.0
0.0 0.0 0.0 0.0 0.0 0.0 0.0 0.0 0.0 0.0 0.0 0.0 0.0 0.0 0.0 0.0 0.0 0.0 0.7 2.0 2.0 2.0 1.6 3.0 0.8 0.0 0.0 0.0 0.0 0.0 0.0 0.0 0.0 0.0 0.0 0.0 0.0 0.0
0.0 0.0 0.0 0.3 0.0 0.0 0.0 0.1 0.2 0.0 0.0 0.0 0.0 0.0 0.0 0.0 0.0 1.4 3.6 4.6 5.4 3.8 1.6 3.5 2.5 1.9 0.0 0.0 0.0 0.0 0.0 0.0 0.0 0.0 0.0 0.0 0.0 0.0
0.0 0.0 0.0 0.0 0.0 0.0 0.0 1.3 3.9 2.4 0.8 0.0 0.0 0.0 0.0 0.0 0.0 0.6 1.3 4.5 4.6 2.8 3.6 4.6 4.1 4.0 3.8 2.6 3.0 2.6 1.4 0.0 0.0 0.0 0.0 0.0 0.0 0.0
0.2 0.0 0.0 0.0 0.0 0.0 0.0 0.0 0.0 0.0 0.0 0.2 0.2 0.4 1.7 1.2 0.0 0.8 1.6 2.3 3.7 3.0 1.2 2.8 3.4 4.5 4.6 4.0 3.1 2.9 3.1 2.3 2.7 1.5 0.0 0.0 0.0 0.0
1.4 0.7 0.0 0.0 0.0 0.0 0.0 0.0 0.0 0.0 0.0 1.4 3.3 3.7 3.3 2.4 1.3 1.6 1.4 1.7 2.2 1.7 1.1 2.5 3.0 4.6 4.8 6.4 4.7 4.0 2.9 4.0 4.2 3.7 3.6 3.4 0.0 0.0
0.9 0.0 0.0 0.0 0.0 0.0 0.0 0.0 0.0 0.0 2.1 4.0 4.9 4.8 3.8 3.7 4.7 4.4 3.1 3.1 3.4 3.3 3.5 4.9 4.4 4.9 7.6 6.7 5.3 5.0 4.9 4.6 4.5 4.9 5.3 5.2 5.4 6.2
0.0 1.8 0.0 0.0 0.0 0.0 0.0 0.0 1.2 1.9 3.5 4.4 4.7 2.7 2.8 3.7 5.4 5.1 5.8 5.5 6.9 5.9 5.4 6.0 6.7 8.0 9.4 10.0 10.1 8.5 8.4 8.0 6.7 6.7 6.3 6.5 7.2 7.7
0.0 3.2 4.2 3.1 4.4 3.8 3.3 2.9 3.2 4.0 6.5 5.4 6.2 6.0 5.4 5.4 5.7 3.8 5.5 7.0 7.9 7.9 7.7 7.6 8.4 8.8 9.7 10.5 11.8 11.1 10.9 10.7 8.8 9.2 10.5 10.1 8.3 8.0
3.0 6.7 7.7 7.0 6.6 3.6 5.1 5.2 4.9 4.3 5.8 6.2 6.6 6.7 7.3 7.5 7.4 7.3 7.4 7.6 7.9 7.7 8.1 9.0 10.8 12.6 13.2 12.1 8.8 11.6 12.2 12.1 10.8 10.9 12.3 13.0 11.6 9.6
7.2 8.3 9.3 7.4 4.7 4.2 5.2 5.6 6.3 5.1 4.7 6.6 6.6 6.9 7.1 7.5 7.0 7.3 7.4 7.6 7.9 7.6 7.5 9.1 12.0 12.9 14.4 14.1 10.9 5.2 12.0 12.4 12.3 12.6 12.6 12.7 12.0 10.9
8.3 10.5 10.8 8.7 7.8 6.7 6.1 6.5 6.0 6.7 6.9 7.0 7.0 7.0 7.3 7.6 8.0 7.9 7.6 7.7 7.8 7.5 8.1 10.1 12.2 12.8 13.2 13.2 13.1 10.5 6.5 13.0 13.0 13.0 13.2 13.4 13.2 7.0
10.1 8.5 8.3 9.2 8.5 6.5 6.4 6.2 6.6 6.7 6.9 7.4 7.0 7.2 7.3 7.8 8.2 7.8 7.7 5.6 5.9 7.6 8.9 9.8 9.7 4.9 10.8 12.7 13.5 13.5 11.1 6.9 12.5 12.7 13.1 13.0 13.3 13.5
8.2 9.4 9.5 9.5 8.9 8.1 7.1 7.1 7.3 7.1 7.0 7.0 7.1 7.1 7.2 7.5 8.0 7.9 7.7 8.1 7.8 7.2 7.3 7.1 8.8 8.4 12.4 13.7 14.1 14.0 13.3 12.1 9.6 5.6 5.7 8.0 14.5 14.2
8.3 9.0 10.2 10.3 11.4 7.7 7.6 7.5 8.3 8.1 7.4 7.4 6.9 7.0 7.2 8.5 7.3 7.4 7.6 7.5 7.6 7.7 7.5 8.7 10.9 11.6 11.4 12.6 13.6 13.9 14.5 14.0 13.7 13.7 13.1 5.9 4.5 5.1